カタログに戻る

STARLINK-31259

運用中通信VLEO
NORAD 59076·PAYLOAD·🇺🇸 United States

打ち上げ Feb 29, 2024 から Cape Canaveral Space Force Station

Loading…

次のパス (今後24時間)

TLE

最新Source: CelesTrak SupGP

元期: Sep 15, 2026, 02:04 UTC

1 59076C 24041C   26258.08659722  .00043995  00000+0  15934-2 0  2581
2 59076  43.0031 320.7336 0001454 263.1486  20.6794 15.27558625    13

AllMySatでSTARLINK-31259をリアルタイム追跡

Download on the App Store